| time (UTC) | temp F | wind direction | speed knots | gust knots | rain 1hr in | rain 24hr in | rain mn in | humidity % | barometer mb |
| 20260508063002 | 64 | 53 | 1.7 | 6.1 | 0.00 | 0.00 | 0.00 | 65 | 1013.3 |
| 20260508062502 | 64 | 45 | 0.9 | 4.3 | 0.00 | 0.00 | 0.00 | 65 | 1013.4 |
| 20260508062002 | 64 | 0 | 0.0 | 0.0 | 0.00 | 0.00 | 0.00 | 65 | 1013.3 |
| 20260508061501 | 64 | 0 | 0.0 | 0.0 | 0.00 | 0.00 | 0.00 | 64 | 1013.3 |
| 20260508061002 | 64 | 0 | 0.0 | 0.0 | 0.00 | 0.00 | 0.00 | 64 | 1013.4 |
| 20260508060502 | 64 | 0 | 0.0 | 0.0 | 0.00 | 0.00 | 0.00 | 64 | 1013.3 |
| 20260508060002 | 64 | 0 | 0.0 | 0.0 | 0.00 | 0.00 | 0.00 | 64 | 1013.1 |
| 20260508055501 | 64 | 0 | 0.0 | 0.0 | 0.00 | 0.00 | 0.00 | 65 | 1013.1 |
| 20260508055002 | 64 | 0 | 0.0 | 0.0 | 0.00 | 0.00 | 0.00 | 64 | 1013.1 |
| 20260508054502 | 64 | 0 | 0.0 | 0.0 | 0.00 | 0.00 | 0.00 | 62 | 1013.3 |
| 20260508054002 | 64 | 0 | 0.0 | 0.0 | 0.00 | 0.00 | 0.00 | 59 | 1013.0 |
| 20260508053501 | 64 | 0 | 0.0 | 0.0 | 0.00 | 0.00 | 0.00 | 58 | 1013.0 |
| 20260508053002 | 64 | 0 | 0.0 | 0.0 | 0.00 | 0.00 | 0.00 | 61 | 1012.9 |
| 20260508052502 | 64 | 0 | 0.0 | 0.0 | 0.00 | 0.00 | 0.00 | 61 | 1012.8 |
| 20260508052002 | 64 | 0 | 0.0 | 0.0 | 0.00 | 0.00 | 0.00 | 60 | 1012.7 |
| 20260508051502 | 64 | 0 | 0.0 | 0.0 | 0.00 | 0.00 | 0.00 | 60 | 1012.7 |
| 20260508051001 | 64 | 0 | 0.0 | 0.0 | 0.00 | 0.00 | 0.00 | 65 | 1012.6 |
| 20260508050502 | 63 | 0 | 0.0 | 0.0 | 0.00 | 0.00 | 0.00 | 65 | 1012.6 |
| 20260508050002 | 62 | 0 | 0.0 | 0.0 | 0.00 | 0.00 | 0.00 | 66 | 1012.5 |
| 20260508045502 | 62 | 0 | 0.0 | 0.0 | 0.00 | 0.00 | 0.00 | 65 | 1012.5 |
| 20260508045002 | 62 | 0 | 0.0 | 0.0 | 0.00 | 0.00 | 0.00 | 68 | 1012.4 |
| 20260508044502 | 61 | 0 | 0.0 | 0.0 | 0.00 | 0.00 | 0.00 | 70 | 1012.5 |
| 20260508044002 | 62 | 0 | 0.0 | 0.0 | 0.00 | 0.00 | 0.00 | 66 | 1012.5 |
| 20260508043502 | 62 | 0 | 0.0 | 0.0 | 0.00 | 0.00 | 0.00 | 66 | 1012.5 |
| 20260508043002 | 62 | 0 | 0.0 | 0.0 | 0.00 | 0.00 | 0.00 | 66 | 1012.4 |
| 20260508042502 | 62 | 0 | 0.0 | 0.0 | 0.00 | 0.00 | 0.00 | 66 | 1012.4 |
| 20260508042003 | 62 | 0 | 0.0 | 0.0 | 0.00 | 0.00 | 0.00 | 66 | 1012.2 |
| 20260508041503 | 62 | 0 | 0.0 | 0.0 | 0.00 | 0.00 | 0.00 | 66 | 1012.2 |
| 20260508041002 | 62 | 0 | 0.0 | 0.0 | 0.00 | 0.00 | 0.00 | 66 | 1012.3 |
| 20260508040501 | 62 | 0 | 0.0 | 0.0 | 0.00 | 0.00 | 0.00 | 66 | 1012.2 |
| 20260508040002 | 62 | 0 | 0.0 | 0.0 | 0.00 | 0.00 | 0.00 | 66 | 1012.2 |
| 20260508035502 | 62 | 0 | 0.0 | 0.0 | 0.00 | 0.00 | 0.00 | 66 | 1012.1 |
| 20260508035002 | 62 | 0 | 0.0 | 0.0 | 0.00 | 0.00 | 0.00 | 66 | 1012.1 |
| 20260508034501 | 62 | 0 | 0.0 | 0.0 | 0.00 | 0.00 | 0.00 | 66 | 1012.0 |
| 20260508034002 | 62 | 0 | 0.0 | 0.0 | 0.00 | 0.00 | 0.00 | 66 | 1011.9 |
| 20260508033502 | 62 | 0 | 0.0 | 0.0 | 0.00 | 0.00 | 0.00 | 66 | 1011.8 |
| 20260508033002 | 62 | 0 | 0.0 | 0.0 | 0.00 | 0.00 | 0.00 | 66 | 1011.7 |
| 20260508032502 | 62 | 0 | 0.0 | 0.0 | 0.00 | 0.00 | 0.00 | 66 | 1011.7 |
| 20260508032002 | 60 | 0 | 0.0 | 0.0 | 0.00 | 0.00 | 0.00 | 66 | 1011.7 |
| 20260508031501 | 60 | 0 | 0.0 | 0.0 | 0.00 | 0.00 | 0.00 | 68 | 1011.6 |
| 20260508031002 | 60 | 0 | 0.0 | 0.0 | 0.00 | 0.00 | 0.00 | 67 | 1011.7 |
| 20260508030502 | 60 | 0 | 0.0 | 0.0 | 0.00 | 0.00 | 0.00 | 66 | 1011.6 |
| 20260508030002 | 60 | 0 | 0.0 | 0.0 | 0.00 | 0.00 | 0.00 | 66 | 1011.6 |
| 20260508025502 | 60 | 0 | 0.0 | 0.0 | 0.00 | 0.00 | 0.00 | 66 | 1011.4 |
| 20260508025002 | 60 | 0 | 0.0 | 0.0 | 0.00 | 0.00 | 0.00 | 68 | 1011.4 |
| 20260508024502 | 60 | 0 | 0.0 | 0.0 | 0.00 | 0.00 | 0.00 | 68 | 1011.4 |
| 20260508024002 | 60 | 0 | 0.0 | 0.0 | 0.00 | 0.00 | 0.00 | 68 | 1011.4 |
| 20260508023502 | 60 | 0 | 0.0 | 0.0 | 0.00 | 0.00 | 0.00 | 70 | 1011.4 |
| 20260508023002 | 60 | 0 | 0.0 | 0.0 | 0.00 | 0.00 | 0.00 | 69 | 1011.2 |
| 20260508022502 | 61 | 0 | 0.0 | 0.0 | 0.00 | 0.00 | 0.00 | 68 | 1011.3 |
| 20260508022002 | 60 | 0 | 0.0 | 0.0 | 0.00 | 0.00 | 0.00 | 65 | 1011.2 |
| 20260508021502 | 60 | 0 | 0.0 | 0.0 | 0.00 | 0.00 | 0.00 | 66 | 1011.0 |
| 20260508021002 | 60 | 0 | 0.0 | 0.0 | 0.00 | 0.00 | 0.00 | 66 | 1011.1 |
| 20260508020502 | 61 | 0 | 0.0 | 0.0 | 0.00 | 0.00 | 0.00 | 66 | 1011.4 |
| 20260508020002 | 60 | 0 | 0.0 | 0.0 | 0.00 | 0.00 | 0.00 | 65 | 1011.4 |
| 20260508015502 | 60 | 0 | 0.0 | 0.0 | 0.00 | 0.00 | 0.00 | 65 | 1011.2 |
| 20260508015002 | 60 | 0 | 0.0 | 0.0 | 0.00 | 0.00 | 0.00 | 70 | 1011.1 |
| 20260508014502 | 61 | 0 | 0.0 | 0.0 | 0.00 | 0.00 | 0.00 | 71 | 1011.2 |
| 20260508014002 | 61 | 0 | 0.0 | 0.0 | 0.00 | 0.00 | 0.00 | 67 | 1011.1 |
| 20260508013502 | 61 | 0 | 0.0 | 0.0 | 0.00 | 0.00 | 0.00 | 68 | 1011.0 |
| 20260508013002 | 61 | 0 | 0.0 | 0.0 | 0.00 | 0.00 | 0.00 | 66 | 1011.1 |
| 20260508012502 | 61 | 0 | 0.0 | 0.0 | 0.00 | 0.00 | 0.00 | 66 | 1011.2 |
| 20260508012002 | 60 | 0 | 0.0 | 0.0 | 0.00 | 0.00 | 0.00 | 69 | 1011.0 |
| 20260508011502 | 60 | 91 | 0.9 | 3.5 | 0.00 | 0.00 | 0.00 | 69 | 1011.1 |
| 20260508011002 | 60 | 93 | 1.7 | 3.5 | 0.00 | 0.00 | 0.00 | 69 | 1011.4 |
| 20260508010502 | 60 | 92 | 0.9 | 3.5 | 0.00 | 0.00 | 0.00 | 70 | 1011.5 |
| 20260508010002 | 60 | 80 | 0.0 | 2.6 | 0.00 | 0.00 | 0.00 | 74 | 1011.5 |
| 20260508005502 | 60 | 0 | 0.0 | 0.0 | 0.00 | 0.00 | 0.00 | 73 | 1011.2 |
| 20260508005002 | 60 | 0 | 0.0 | 0.0 | 0.00 | 0.00 | 0.00 | 74 | 1011.2 |
| 20260508004502 | 60 | 0 | 0.0 | 0.0 | 0.00 | 0.00 | 0.00 | 74 | 1011.2 |
| 20260508004002 | 60 | 0 | 0.0 | 0.0 | 0.00 | 0.00 | 0.00 | 76 | 1011.4 |
| 20260508003502 | 60 | 0 | 0.0 | 0.0 | 0.00 | 0.00 | 0.00 | 77 | 1011.4 |
| 20260508003002 | 60 | 0 | 0.0 | 0.0 | 0.00 | 0.00 | 0.00 | 76 | 1011.2 |
| 20260508002502 | 60 | 0 | 0.0 | 0.0 | 0.00 | 0.00 | 0.00 | 79 | 1011.2 |
| 20260508002002 | 60 | 0 | 0.0 | 0.0 | 0.00 | 0.00 | 0.00 | 78 | 1011.2 |
| 20260508001502 | 60 | 0 | 0.0 | 0.0 | 0.00 | 0.00 | 0.00 | 79 | 1011.1 |
| 20260508001002 | 60 | 0 | 0.0 | 0.0 | 0.00 | 0.00 | 0.00 | 78 | 1011.3 |
| 20260508000502 | 60 | 0 | 0.0 | 0.0 | 0.00 | 0.00 | 0.00 | 77 | 1011.5 |
| 20260508000002 | 61 | 340 | 0.9 | 2.6 | 0.00 | 0.00 | 0.00 | 78 | 1011.5 |
| 20260507235502 | 61 | 340 | 0.9 | 2.6 | 0.00 | 0.00 | 0.00 | 76 | 1011.7 |
| 20260507235002 | 61 | 340 | 0.9 | 2.6 | 0.00 | 0.00 | 0.00 | 75 | 1011.8 |
| 20260507234502 | 61 | 340 | 0.9 | 2.6 | 0.00 | 0.00 | 0.00 | 74 | 1011.9 |
| 20260507234002 | 61 | 343 | 0.9 | 2.6 | 0.00 | 0.00 | 0.00 | 74 | 1011.9 |
| 20260507233502 | 61 | 346 | 0.9 | 2.6 | 0.00 | 0.00 | 0.00 | 73 | 1011.9 |
| 20260507233002 | 61 | 79 | 0.0 | 1.7 | 0.00 | 0.00 | 0.00 | 73 | 1012.0 |
| 20260507232502 | 61 | 0 | 0.0 | 0.0 | 0.00 | 0.00 | 0.00 | 73 | 1011.9 |
| 20260507232002 | 61 | 0 | 0.0 | 0.0 | 0.00 | 0.00 | 0.00 | 72 | 1011.9 |
| 20260507231502 | 62 | 0 | 0.0 | 0.0 | 0.00 | 0.00 | 0.00 | 73 | 1012.2 |
| 20260507231002 | 62 | 0 | 0.0 | 0.0 | 0.00 | 0.00 | 0.00 | 72 | 1012.2 |
| 20260507230502 | 61 | 0 | 0.0 | 0.0 | 0.00 | 0.00 | 0.00 | 71 | 1012.5 |
| 20260507230003 | 61 | 0 | 0.0 | 0.0 | 0.00 | 0.00 | 0.00 | 71 | 1012.6 |
| 20260507225502 | 62 | 48 | 0.9 | 3.5 | 0.00 | 0.00 | 0.00 | 71 | 1012.7 |
| 20260507225002 | 62 | 27 | 1.7 | 5.2 | 0.00 | 0.00 | 0.00 | 71 | 1012.7 |
| 20260507224504 | 61 | 6 | 2.6 | 5.2 | 0.00 | 0.00 | 0.00 | 72 | 1012.9 |
| 20260507224002 | 61 | 358 | 1.7 | 4.3 | 0.00 | 0.00 | 0.00 | 73 | 1012.9 |
| 20260507223502 | 61 | 8 | 2.6 | 5.2 | 0.00 | 0.00 | 0.00 | 74 | 1012.9 |
| 20260507223002 | 61 | 8 | 2.6 | 5.2 | 0.00 | 0.00 | 0.00 | 74 | 1013.0 |
| 20260507222502 | 62 | 4 | 3.5 | 5.2 | 0.00 | 0.00 | 0.00 | 73 | 1013.1 |
| 20260507222002 | 62 | 20 | 2.6 | 5.2 | 0.00 | 0.00 | 0.00 | 72 | 1013.1 |
| 20260507221502 | 62 | 37 | 3.5 | 7.0 | 0.00 | 0.00 | 0.00 | 72 | 1013.2 |
| 20260507221002 | 62 | 36 | 3.5 | 7.0 | 0.00 | 0.00 | 0.00 | 71 | 1013.1 |
| 20260507220502 | 62 | 42 | 3.5 | 6.1 | 0.00 | 0.00 | 0.00 | 71 | 1013.3 |
| 20260507220006 | 62 | 54 | 2.6 | 6.1 | 0.00 | 0.00 | 0.00 | 70 | 1013.3 |
| 20260507215503 | 62 | 65 | 2.6 | 4.3 | 0.00 | 0.00 | 0.00 | 70 | 1013.2 |
| 20260507215002 | 62 | 65 | 2.6 | 4.3 | 0.00 | 0.00 | 0.00 | 70 | 1013.1 |
| 20260507214502 | 62 | 66 | 2.6 | 5.2 | 0.00 | 0.00 | 0.00 | 70 | 1013.3 |
| 20260507214002 | 63 | 61 | 2.6 | 5.2 | 0.00 | 0.00 | 0.00 | 70 | 1013.2 |
| 20260507213502 | 63 | 56 | 2.6 | 5.2 | 0.00 | 0.00 | 0.00 | 69 | 1013.1 |
| 20260507213002 | 63 | 66 | 2.6 | 4.3 | 0.00 | 0.00 | 0.00 | 68 | 1012.9 |
| 20260507212502 | 63 | 129 | 2.6 | 4.3 | 0.00 | 0.00 | 0.00 | 67 | 1013.0 |
| 20260507212002 | 63 | 190 | 2.6 | 3.5 | 0.00 | 0.00 | 0.00 | 66 | 1012.7 |
| 20260507211502 | 64 | 193 | 1.7 | 3.5 | 0.00 | 0.00 | 0.00 | 66 | 1012.6 |
| 20260507211002 | 63 | 196 | 0.9 | 3.5 | 0.00 | 0.00 | 0.00 | 66 | 1012.3 |
| 20260507210502 | 63 | 198 | 0.9 | 2.6 | 0.00 | 0.00 | 0.00 | 66 | 1012.2 |
| 20260507210002 | 63 | 196 | 1.7 | 3.5 | 0.00 | 0.00 | 0.00 | 67 | 1011.9 |
| 20260507205502 | 63 | 182 | 1.7 | 3.5 | 0.00 | 0.00 | 0.00 | 67 | 1011.5 |
| 20260507205002 | 63 | 168 | 1.7 | 3.5 | 0.00 | 0.00 | 0.00 | 67 | 1011.3 |
| 20260507204502 | 63 | 162 | 0.9 | 2.6 | 0.00 | 0.00 | 0.00 | 67 | 1011.4 |
| 20260507204002 | 64 | 0 | 0.0 | 0.0 | 0.00 | 0.00 | 0.00 | 66 | 1011.6 |
| 20260507203502 | 64 | 0 | 0.0 | 0.0 | 0.00 | 0.00 | 0.00 | 65 | 1011.5 |
| 20260507203002 | 64 | 0 | 0.0 | 0.0 | 0.00 | 0.00 | 0.00 | 64 | 1011.5 |
| 20260507202502 | 64 | 0 | 0.0 | 0.0 | 0.00 | 0.00 | 0.00 | 64 | 1011.2 |
| 20260507202002 | 64 | 91 | 0.0 | 1.7 | 0.00 | 0.00 | 0.00 | 64 | 1011.3 |
| 20260507201502 | 64 | 91 | 0.9 | 2.6 | 0.00 | 0.00 | 0.00 | 64 | 1011.5 |
| 20260507201002 | 64 | 86 | 1.7 | 4.3 | 0.00 | 0.00 | 0.00 | 64 | 1011.7 |
| 20260507200502 | 64 | 84 | 1.7 | 4.3 | 0.00 | 0.00 | 0.00 | 64 | 1011.8 |
| 20260507200002 | 64 | 85 | 0.9 | 3.5 | 0.00 | 0.00 | 0.00 | 64 | 1011.7 |
| 20260507195502 | 64 | 81 | 1.7 | 3.5 | 0.00 | 0.00 | 0.00 | 64 | 1011.7 |
| 20260507195002 | 64 | 76 | 1.7 | 3.5 | 0.00 | 0.00 | 0.00 | 66 | 1011.9 |
| 20260507194502 | 64 | 76 | 2.6 | 3.5 | 0.00 | 0.00 | 0.00 | 66 | 1012.1 |
| 20260507194002 | 64 | 75 | 2.6 | 4.3 | 0.00 | 0.00 | 0.00 | 67 | 1012.0 |
| 20260507193502 | 64 | 72 | 2.6 | 5.2 | 0.00 | 0.00 | 0.00 | 68 | 1011.9 |
| 20260507193002 | 64 | 71 | 2.6 | 5.2 | 0.00 | 0.00 | 0.00 | 69 | 1011.9 |
| 20260507192502 | 64 | 74 | 2.6 | 4.3 | 0.00 | 0.00 | 0.00 | 69 | 1011.7 |
| 20260507192002 | 64 | 78 | 1.7 | 3.5 | 0.00 | 0.00 | 0.00 | 69 | 1011.4 |
| 20260507191502 | 64 | 72 | 1.7 | 3.5 | 0.00 | 0.00 | 0.00 | 69 | 1011.4 |
| 20260507191002 | 64 | 62 | 2.6 | 4.3 | 0.00 | 0.00 | 0.00 | 69 | 1011.2 |
| 20260507190502 | 64 | 53 | 2.6 | 5.2 | 0.00 | 0.00 | 0.00 | 69 | 1011.2 |
| 20260507190004 | 64 | 50 | 2.6 | 5.2 | 0.00 | 0.00 | 0.00 | 70 | 1011.2 |
| 20260507185502 | 65 | 52 | 2.6 | 5.2 | 0.00 | 0.00 | 0.00 | 70 | 1011.1 |
| 20260507185002 | 65 | 51 | 3.5 | 5.2 | 0.00 | 0.00 | 0.00 | 70 | 1011.1 |
| 20260507184503 | 65 | 50 | 2.6 | 5.2 | 0.00 | 0.00 | 0.00 | 69 | 1010.9 |
| 20260507184002 | 65 | 49 | 2.6 | 5.2 | 0.00 | 0.00 | 0.00 | 70 | 1010.9 |
| 20260507183502 | 65 | 49 | 2.6 | 5.2 | 0.00 | 0.00 | 0.00 | 70 | 1010.9 |
| 20260507183002 | 65 | 55 | 2.6 | 5.2 | 0.00 | 0.00 | 0.00 | 69 | 1011.1 |
| 20260507182503 | 65 | 57 | 2.6 | 5.2 | 0.00 | 0.00 | 0.00 | 70 | 1011.1 |
| 20260507182002 | 65 | 59 | 2.6 | 5.2 | 0.00 | 0.00 | 0.00 | 69 | 1011.0 |
| 20260507181503 | 65 | 66 | 2.6 | 4.3 | 0.00 | 0.00 | 0.00 | 69 | 1010.9 |
| 20260507181002 | 65 | 59 | 2.6 | 6.1 | 0.00 | 0.00 | 0.00 | 69 | 1011.0 |
| 20260507180502 | 66 | 55 | 3.5 | 6.1 | 0.00 | 0.00 | 0.00 | 69 | 1011.0 |
| 20260507180003 | 66 | 55 | 3.5 | 7.8 | 0.00 | 0.00 | 0.00 | 69 | 1011.1 |
| 20260507175503 | 66 | 56 | 4.3 | 7.8 | 0.00 | 0.00 | 0.00 | 69 | 1010.9 |
| 20260507175002 | 66 | 59 | 5.2 | 8.7 | 0.00 | 0.00 | 0.00 | 69 | 1011.0 |
| 20260507174502 | 66 | 62 | 4.3 | 8.7 | 0.00 | 0.00 | 0.00 | 69 | 1011.0 |
| 20260507174003 | 66 | 61 | 4.3 | 8.7 | 0.00 | 0.00 | 0.00 | 69 | 1010.9 |
| 20260507173502 | 66 | 59 | 4.3 | 9.6 | 0.00 | 0.00 | 0.00 | 68 | 1010.9 |
| 20260507173002 | 66 | 59 | 4.3 | 9.6 | 0.00 | 0.00 | 0.00 | 68 | 1010.9 |
| 20260507172503 | 66 | 58 | 4.3 | 10.4 | 0.00 | 0.00 | 0.00 | 68 | 1010.8 |
| 20260507172002 | 66 | 57 | 5.2 | 10.4 | 0.00 | 0.00 | 0.00 | 68 | 1010.7 |
| 20260507171503 | 66 | 54 | 4.3 | 10.4 | 0.00 | 0.00 | 0.00 | 68 | 1010.4 |
| 20260507171003 | 66 | 54 | 4.3 | 10.4 | 0.00 | 0.00 | 0.00 | 67 | 1010.3 |
| 20260507170503 | 66 | 44 | 5.2 | 11.3 | 0.00 | 0.00 | 0.00 | 67 | 1010.3 |
| 20260507170002 | 67 | 37 | 6.1 | 11.3 | 0.00 | 0.00 | 0.00 | 67 | 1010.4 |
| 20260507165503 | 67 | 37 | 6.1 | 10.4 | 0.00 | 0.00 | 0.00 | 67 | 1010.3 |
| 20260507165002 | 67 | 43 | 7.0 | 11.3 | 0.00 | 0.00 | 0.00 | 67 | 1010.3 |
| 20260507164502 | 67 | 45 | 7.0 | 11.3 | 0.00 | 0.00 | 0.00 | 66 | 1010.5 |
| 20260507164003 | 67 | 45 | 7.0 | 12.2 | 0.00 | 0.00 | 0.00 | 66 | 1010.3 |
| 20260507163502 | 68 | 46 | 7.0 | 12.2 | 0.00 | 0.00 | 0.00 | 66 | 1010.6 |
| 20260507163002 | 68 | 47 | 6.1 | 12.2 | 0.00 | 0.00 | 0.00 | 65 | 1010.6 |
| 20260507162503 | 68 | 43 | 6.1 | 11.3 | 0.00 | 0.00 | 0.00 | 65 | 1010.8 |
| 20260507162002 | 68 | 45 | 7.0 | 12.2 | 0.00 | 0.00 | 0.00 | 65 | 1010.7 |
| 20260507161503 | 69 | 55 | 6.1 | 13.0 | 0.00 | 0.00 | 0.00 | 64 | 1010.7 |
| 20260507161002 | 69 | 56 | 6.1 | 13.0 | 0.00 | 0.00 | 0.00 | 63 | 1010.7 |
| 20260507160503 | 69 | 54 | 5.2 | 10.4 | 0.00 | 0.00 | 0.00 | 63 | 1010.7 |
| 20260507160002 | 70 | 58 | 6.1 | 12.2 | 0.00 | 0.00 | 0.00 | 62 | 1010.7 |
| 20260507155502 | 70 | 58 | 6.1 | 12.2 | 0.00 | 0.00 | 0.00 | 63 | 1010.7 |
| 20260507155002 | 70 | 65 | 7.0 | 12.2 | 0.00 | 0.00 | 0.00 | 60 | 1010.5 |
| 20260507154503 | 70 | 84 | 7.0 | 11.3 | 0.00 | 0.00 | 0.00 | 60 | 1010.5 |
| 20260507154002 | 70 | 92 | 7.0 | 13.0 | 0.00 | 0.00 | 0.00 | 51 | 1010.5 |
| 20260507153502 | 71 | 81 | 7.0 | 13.9 | 0.00 | 0.00 | 0.00 | 52 | 1010.4 |
| 20260507153003 | 71 | 68 | 7.0 | 13.9 | 0.00 | 0.00 | 0.00 | 57 | 1010.4 |
| 20260507152503 | 71 | 66 | 6.1 | 12.2 | 0.00 | 0.00 | 0.00 | 59 | 1010.2 |
| 20260507152003 | 71 | 89 | 7.0 | 11.3 | 0.00 | 0.00 | 0.00 | 59 | 1010.2 |
| 20260507151503 | 70 | 105 | 5.2 | 11.3 | 0.00 | 0.00 | 0.00 | 59 | 1010.1 |
| 20260507151003 | 71 | 107 | 4.3 | 13.0 | 0.00 | 0.00 | 0.00 | 58 | 1009.9 |
| 20260507150503 | 70 | 81 | 7.0 | 14.8 | 0.00 | 0.00 | 0.00 | 58 | 1009.9 |
| 20260507150002 | 70 | 58 | 7.0 | 14.8 | 0.00 | 0.00 | 0.00 | 61 | 1010.0 |
| 20260507145503 | 71 | 63 | 7.0 | 14.8 | 0.00 | 0.00 | 0.00 | 61 | 1010.2 |
| 20260507145002 | 71 | 71 | 7.8 | 14.8 | 0.00 | 0.00 | 0.00 | 60 | 1010.2 |
| 20260507144503 | 71 | 87 | 7.8 | 14.8 | 0.00 | 0.00 | 0.00 | 59 | 1010.5 |
| 20260507144003 | 72 | 105 | 8.7 | 15.6 | 0.00 | 0.00 | 0.00 | 52 | 1010.5 |
| 20260507143503 | 72 | 106 | 9.6 | 15.6 | 0.00 | 0.00 | 0.00 | 51 | 1010.5 |
| 20260507143003 | 72 | 103 | 9.6 | 15.6 | 0.00 | 0.00 | 0.00 | 53 | 1010.4 |
| 20260507142502 | 72 | 98 | 8.7 | 15.6 | 0.00 | 0.00 | 0.00 | 52 | 1010.6 |
| 20260507142003 | 72 | 101 | 8.7 | 15.6 | 0.00 | 0.00 | 0.00 | 52 | 1010.6 |
| 20260507141503 | 72 | 110 | 9.6 | 15.6 | 0.00 | 0.00 | 0.00 | 51 | 1010.5 |
| 20260507141003 | 72 | 104 | 9.6 | 18.2 | 0.00 | 0.00 | 0.00 | 51 | 1010.5 |
| 20260507140503 | 72 | 95 | 9.6 | 18.2 | 0.00 | 0.00 | 0.00 | 51 | 1010.5 |
| 20260507140003 | 72 | 97 | 10.4 | 18.2 | 0.00 | 0.00 | 0.00 | 51 | 1010.5 |
| 20260507135503 | 72 | 89 | 11.3 | 18.2 | 0.00 | 0.00 | 0.00 | 51 | 1010.3 |
| 20260507135003 | 73 | 88 | 7.8 | 15.6 | 0.00 | 0.00 | 0.00 | 50 | 1010.3 |
| 20260507134503 | 74 | 140 | 3.5 | 13.0 | 0.00 | 0.00 | 0.00 | 49 | 1010.4 |
| 20260507134003 | 74 | 190 | 3.5 | 8.7 | 0.00 | 0.00 | 0.00 | 47 | 1010.1 |
| 20260507133503 | 75 | 168 | 2.6 | 8.7 | 0.00 | 0.00 | 0.00 | 45 | 1010.3 |
| 20260507133003 | 74 | 85 | 1.7 | 6.1 | 0.00 | 0.00 | 0.00 | 47 | 1010.2 |
| 20260507132503 | 74 | 186 | 2.6 | 6.1 | 0.00 | 0.00 | 0.00 | 46 | 1010.3 |
| 20260507132003 | 74 | 223 | 3.5 | 7.8 | 0.00 | 0.00 | 0.00 | 47 | 1010.4 |
| 20260507131503 | 73 | 212 | 4.3 | 9.6 | 0.00 | 0.00 | 0.00 | 46 | 1010.3 |
| 20260507131002 | 73 | 199 | 5.2 | 9.6 | 0.00 | 0.00 | 0.00 | 46 | 1010.4 |
| 20260507130503 | 73 | 191 | 4.3 | 9.6 | 0.00 | 0.00 | 0.00 | 47 | 1010.6 |
| 20260507130003 | 73 | 176 | 3.5 | 8.7 | 0.00 | 0.00 | 0.00 | 48 | 1010.7 |
| 20260507125503 | 73 | 180 | 5.2 | 10.4 | 0.00 | 0.00 | 0.00 | 48 | 1010.7 |
| 20260507125003 | 72 | 194 | 5.2 | 10.4 | 0.00 | 0.00 | 0.00 | 48 | 1010.5 |
| 20260507124503 | 73 | 187 | 5.2 | 8.7 | 0.00 | 0.00 | 0.00 | 48 | 1010.8 |
| 20260507124003 | 73 | 179 | 5.2 | 8.7 | 0.00 | 0.00 | 0.00 | 49 | 1010.7 |
| 20260507123503 | 72 | 175 | 4.3 | 8.7 | 0.00 | 0.00 | 0.00 | 49 | 1010.6 |
| 20260507123003 | 73 | 171 | 3.5 | 7.0 | 0.00 | 0.00 | 0.00 | 49 | 1010.5 |
| 20260507122503 | 73 | 176 | 2.6 | 8.7 | 0.00 | 0.00 | 0.00 | 49 | 1010.5 |
| 20260507122004 | 73 | 171 | 3.5 | 8.7 | 0.00 | 0.00 | 0.00 | 48 | 1010.4 |